Location: Newark
(45.2500°N, 7.5833°E)
Time: 21:40:48
(UTC+00:00)

First-Move - Visible Passes

Search period start: 21 February 2020 00:00
Search period end: 02 March 2020 00:00
Orbit: 578 x 667 km, 97.6° (Epoch: 21 February)

Date Brightness Start Highest point End Pass type
(mag) Time Alt. Az. Time Alt. Az. Time Alt. Az.
21 Feb ? 04:27:13 10° NE 04:30:07 16° E 04:33:00 10° SE visible
22 Feb ? 04:44:42 10° NE 04:48:27 24° E 04:52:10 10° SSE visible
23 Feb ? 05:02:29 10° NNE 05:06:45 36° E 05:10:57 10° SSE visible
23 Feb ? 17:36:02 10° SSW 17:39:39 25° W 17:43:22 10° NW visible
24 Feb ? 05:20:26 10° NNE 05:24:59 56° E 05:29:26 10° S visible
24 Feb ? 17:55:08 10° SW 17:57:59 17° W 18:00:52 10° NW visible
25 Feb ? 05:38:32 10° NNE 05:43:10 85° ESE 05:47:42 10° SSW visible
25 Feb ? 18:15:14 10° W 18:16:22 11° W 18:17:30 10° WNW visible
26 Feb ? 04:22:06 10° NE 04:24:40 15° E 04:27:11 10° ESE visible
27 Feb ? 04:39:27 10° NE 04:43:01 22° E 04:46:31 10° SE visible
28 Feb ? 04:57:10 10° NNE 05:01:19 32° E 05:05:21 10° SSE visible
29 Feb ? 05:15:05 10° NNE 05:19:34 49° E 05:23:55 10° S visible
29 Feb ? 17:49:19 10° SW 17:52:29 19° W 17:55:43 10° NW visible
01 Mar ? 05:33:09 10° NNE 05:37:45 77° ESE 05:42:14 10° S visible
01 Mar ? 18:08:57 10° WSW 18:10:51 12° W 18:12:47 10° WNW visible
